Location: Great Snoring
(52.8667°N, 0.8833°E)
Time: 16:32:09
(UTC+00:00)

Cosmos 2082 Rocket - Pass Details

Date: 19 May 2025
Orbit: 832 x 853 km, 71.0° (Epoch: 12 June)

Event Time Altitude Azimuth Distance (km) Brightness Sun altitude
Exits shadow 23:23:50 - 229° (SW) 2,655 4.5 -16.9°
Reaches altitude 10° 23:24:25 10° 231° (SW) 2,440 4.3 -16.9°
Maximum altitude 23:29:54 54° 308° (NW) 1,009 2.8 -17.0°
Drops below altitude 10° 23:35:26 10° 26° (NNE) 2,462 5.5 -17.0°
Sets 23:37:57 0° 31° (NNE) 3,403 6.3 -17.1°
